This demonstration page uses our WeatherBlox Daily Observations layout. Learn more.

Left ArrowRight Arrow

41.86663, -103.66717

Hourly Observations for July 3, 2018

Temp ( °F °C ) Dew Point ( °F °C ) Humidity (%) Winds ( mph kmh ) Pressure ( in mb ) Visibility ( mi km ) Precip ( " mm )
12:53 am 00:53 Clear 79 26.1 55 12.8 44 44 SSW 8 13 29.7 1006 10 16.0934 N/A
1:53 am 01:53 Clear 77 25 51 10.6 40 40 WNW 9 15 29.69 1005 10 16.0934 N/A
2:53 am 02:53 Clear 68 20 57 13.9 68 68 NNE 6 9 29.71 1006 10 16.0934 N/A
3:53 am 03:53 Clear 65 18.3 57 13.9 76 76 ENE 6 9 29.7 1006 10 16.0934 N/A
4:53 am 04:53 Clear 65 18.3 55 12.8 70 70 SE 9 15 29.72 1006 10 16.0934 N/A
5:53 am 05:53 Sunny 62 16.7 59 15 90 90 ENE 5 7 29.72 1006 10 16.0934 N/A
6:53 am 06:53 Sunny 64 17.8 60 15.6 87 87 N N/A 29.75 1007 10 16.0934 N/A
7:53 am 07:53 Sunny 69 20.6 61 16.1 76 76 ESE 8 13 29.76 1008 10 16.0934 N/A
8:53 am 08:53 Sunny 74 23.3 60 15.6 62 62 E 5 7 29.77 1008 10 16.0934 N/A
9:53 am 09:53 Sunny 79 26.1 63 17.2 58 58 SE 9 15 29.76 1008 10 16.0934 N/A
10:53 am 10:53 Sunny 84 28.9 60 15.6 44 44 ESE 3 6 29.77 1008 10 16.0934 N/A
11:53 am 11:53 Sunny 86 30 65 18.3 49 49 SSE 6 9 29.77 1008 10 16.0934 N/A
12:53 pm 12:53 Sunny 89 31.7 64 17.8 43 43 SE 8 13 29.74 1007 10 16.0934 N/A
1:53 pm 13:53 Sunny 92 33.3 58 14.4 32 32 ESE 15 24 29.72 1006 10 16.0934 N/A
2:53 pm 14:53 Sunny 92 33.3 55 12.8 29 29 SE 12 19 29.72 1007 10 16.0934 N/A
3:53 pm 15:53 Sunny 89 31.7 58 14.4 35 35 ESE 13 20 29.74 1007 10 16.0934 N/A
4:53 pm 16:53 Sunny 87 30.6 66 18.9 50 50 ESE 9 15 29.74 1007 10 16.0934 N/A
5:53 pm 17:53 Sunny 84 28.9 62 16.7 48 48 S 15 24 29.77 1008 10 16.0934 N/A
6:53 pm 18:53 Sunny 81 27.2 50 10 34 34 VRB 3 6 29.75 1007 10 16.0934 N/A
7:53 pm 19:53 Sunny 83 28.3 46 7.8 27 27 SE 18 30 29.76 1008 10 16.0934 N/A
8:53 pm 20:53 Clear 80 26.7 47 8.3 31 31 SE 21 33 29.78 1008 10 16.0934 N/A
9:53 pm 21:53 Clear 76 24.4 50 10 40 40 SE 15 24 29.8 1009 10 16.0934 N/A
10:53 pm 22:53 Clear 73 22.8 52 11.1 48 48 N N/A 29.8 1009 10 16.0934 N/A
11:53 pm 23:53 Mostly Clear 72 22.2 54 12.2 53 53 NW 9 15 29.88 1012 10 16.0934 N/A

Powered by AerisWeather